Content
SEND FEEDBACK

Daily
Averages
Monthly
Summary
New Caledonia

NOUMEA, NEW CALEDONIA


Home > Oceania > New Caledonia
Elevation: 236 feet     Latitude: 22 16S     Longitude: 166 27E

WEATHER
 
SELECT A DAY
Number of Records: 175,753;   Date Range: 9/1/96 - 4/21/13
 
SHARE

PRINT THIS DATA

[ ← Previous Day ]
WEATHER ALMANAC - JANUARY 31, 2013
[ Next Day → ]
[ °C ]   °F
Weather ElementAverageHighLow
Temperature78 °F87.8 °F (1:00 pm)69 °F (5:00 am)
Dewpoint67.7 °F69.8 °F (7:00 pm)64.4 °F (11:00 am)
Humidity71.6 %91 % (5:00 am)42 % (11:00 am)
Barometer29.72 in29.77 in (7:30 am)29.65 in (3:00 pm)
Wind Speed7.8 mph18.4 mph (1:30 pm)
Weather ElementAverage
Visibility8.6 mi
Wind DirectionESE (101.2 °)

Weather ElementTotal
Precipitation---
Cooling Degree Days13.4 (Base 65)
Growing Degree Days28.4 (Base 50)
Averaged from 51 records on January 31, 2013
WEATHER CONDITIONS BREAKOUT
WIND DIRECTION BREAKOUT
WEATHER BY HOUR - JANUARY 31, 2013
[ °C ]   °F
Local TimeTemperatureDewpointHumidityBarometerVisibilityWind DirectionWind SpeedGust SpeedPrecipitationEventsConditions
12:30 AM71.6 °F68.0 °F88 %29.74 in6.2 miESE (120°)4.6 mph
1:00 AM73.4 °F68.0 °F83 %29.74 in6.2 miVariable2.3 mph
1:30 AM71.6 °F68.0 °F88 %29.74 in6.2 miVariable1.2 mph
2:00 AM71.6 °F68.0 °F88 %29.71 in6.2 miCalm
2:30 AM71.6 °F66.2 °F83 %29.71 in6.2 miEast (90°)4.6 mph
3:00 AM69.8 °F66.2 °F88 %29.71 in6.2 miNNE (30°)4.6 mph
3:30 AM71.6 °F66.2 °F83 %29.71 in6.2 miCalm
4:00 AM69.8 °F66.2 °F88 %29.71 in6.2 miENE (70°)1.2 mph
4:30 AM69.8 °F66.2 °F88 %29.71 in6.2 miVariable1.2 mph
5:00 AM69.0 °F67.0 °F91 %29.73 in37.0 miCalmClear
5:00 AM69.8 °F66.2 °F88 %29.71 in6.2 miCalm
5:30 AM69.8 °F66.2 °F88 %29.71 in6.2 miNorth (350°)2.3 mph
6:00 AM69.8 °F66.2 °F88 %29.74 in6.2 miCalmPartly Cloudy
6:30 AM69.8 °F66.2 °F88 %29.74 in6.2 miCalm
7:00 AM73.4 °F68.0 °F83 %29.74 in6.2 miCalmScattered Clouds
7:30 AM77.0 °F68.0 °F74 %29.77 in6.2 miSE (140°)4.6 mphMostly Cloudy
8:00 AM80.6 °F68.0 °F65 %29.77 in6.2 miESE (110°)3.5 mphScattered Clouds
8:30 AM80.6 °F66.2 °F61 %29.77 in6.2 miESE (120°)8.1 mphScattered Clouds
9:00 AM78.8 °F68.0 °F69 %29.74 in6.2 miESE (110°)11.5 mphOvercast
9:30 AM80.6 °F68.0 °F65 %29.74 in6.2 miESE (120°)16.1 mphOvercast
10:00 AM84.2 °F68.0 °F58 %29.74 in6.2 miESE (120°)15.0 mphOvercast
10:30 AM84.2 °F68.0 °F58 %29.74 in6.2 miSE (140°)12.7 mphMostly Cloudy
11:00 AM85.0 °F65.0 °F42 %29.74 in37.0 miSSE (150°)12.7 mphClear
11:00 AM86.0 °F64.4 °F48 %29.74 in6.2 miSSE (150°)12.7 mphScattered Clouds
11:30 AM84.2 °F68.0 °F58 %29.71 in6.2 miSE (140°)11.5 mphMostly Cloudy
12:00 PM84.2 °F68.0 °F58 %29.71 in6.2 miSE (130°)15.0 mphMostly Cloudy
12:30 PM86.0 °F68.0 °F55 %29.68 in6.2 miSSE (150°)15.0 mphScattered Clouds
1:00 PM87.8 °F66.2 °F49 %29.68 in6.2 miSE (130°)17.3 mphScattered Clouds
1:30 PM86.0 °F66.2 °F51 %29.68 in6.2 miSSE (150°)18.4 mphPartly Cloudy
2:00 PM86.0 °F68.0 °F55 %29.68 in6.2 miSSE (160°)17.3 mphPartly Cloudy
2:30 PM87.8 °F68.0 °F52 %29.68 in6.2 miSSE (160°)17.3 mphPartly Cloudy
3:00 PM86.0 °F68.0 °F55 %29.65 in6.2 miSSE (150°)13.8 mphPartly Cloudy
3:30 PM86.0 °F68.0 °F55 %29.65 in6.2 miSSE (160°)15.0 mph
4:00 PM86.0 °F68.0 °F55 %29.65 in6.2 miSouth (170°)15.0 mphPartly Cloudy
4:30 PM84.2 °F68.0 °F58 %29.65 in6.2 miSSE (160°)12.7 mphMostly Cloudy
5:00 PM83.0 °F67.0 °F50 %29.68 in37.0 miSSE (150°)11.5 mphClear
5:00 PM84.2 °F68.0 °F58 %29.65 in6.2 miSSE (150°)11.5 mphScattered Clouds
5:30 PM82.4 °F68.0 °F62 %29.68 in6.2 miSE (130°)15.0 mphScattered Clouds
6:00 PM80.6 °F68.0 °F65 %29.68 in6.2 miSE (130°)16.1 mph
6:30 PM78.8 °F68.0 °F69 %29.68 in6.2 miSE (140°)12.7 mphPartly Cloudy
7:00 PM77.0 °F69.8 °F78 %29.71 in6.2 miSE (140°)9.2 mphMostly Cloudy
7:30 PM77.0 °F69.8 °F78 %29.71 in6.2 miSE (140°)8.1 mphPartly Cloudy
8:00 PM77.0 °F69.8 °F78 %29.74 in6.2 miESE (120°)8.1 mphPartly Cloudy
8:30 PM75.2 °F69.8 °F83 %29.74 in6.2 miSE (140°)5.8 mphMostly Cloudy
9:00 PM75.2 °F69.8 °F83 %29.74 in6.2 miESE (120°)6.9 mph
9:30 PM75.2 °F69.8 °F83 %29.74 in6.2 miESE (120°)5.8 mph
10:00 PM75.2 °F69.8 °F83 %29.74 in6.2 miVariable1.2 mph
10:30 PM73.4 °F69.8 °F88 %29.74 in6.2 miCalm
11:00 PM73.0 °F68.0 °F81 %29.75 in37.0 miCalmClear
11:00 PM73.4 °F68.0 °F83 %29.74 in6.2 miCalm
11:30 PM71.6 °F68.0 °F88 %29.74 in6.2 miCalm
Hourly data recorded from NWWM, located miles away from Noumea, New Caledonia







STORIES FROM OUR PARTNERS